This is the latest recevied weather packets stored in our database for station/object W5DRO-13. If no packets are shown the sender has not sent any weather packets the latest 10 day(s).
| Time | Temp. | Humidity | Pressure | Rain* | Wind** | Luminosity | Snow |
|---|---|---|---|---|---|---|---|
| 1777943948 | 24.44° C | 63% | 1002.6 hPa | 0 mm | - | - | - |
| 1777943644 | 25° C | 62% | 1002.5 hPa | 0 mm | - | - | - |
| 1777943341 | 25° C | 62% | 1002.6 hPa | 0 mm | - | - | - |
| 1777943037 | 25° C | 62% | 1002.7 hPa | 0 mm | - | - | - |
| 1777942733 | 25° C | 61% | 1002.6 hPa | 0 mm | - | - | - |
| 1777942430 | 25.56° C | 61% | 1002.5 hPa | 0 mm | - | - | - |
| 1777942128 | 25.56° C | 60% | 1002.7 hPa | 0 mm | - | - | - |
| 1777941823 | 25.56° C | 60% | 1002.6 hPa | 0 mm | - | - | - |
| 1777941521 | 25.56° C | 60% | 1002.7 hPa | 0 mm | - | - | - |
| 1777941218 | 26.11° C | 59% | 1002.8 hPa | 0 mm | - | - | - |
| 1777940914 | 26.11° C | 59% | 1002.8 hPa | 0 mm | - | - | - |
| 1777940611 | 26.11° C | 58% | 1002.8 hPa | 0 mm | - | - | - |
| 1777940310 | 26.67° C | 58% | 1002.7 hPa | 0 mm | - | - | - |
| 1777940006 | 26.67° C | 58% | 1002.8 hPa | 0 mm | - | - | - |
| 1777939703 | 27.22° C | 57% | 1002.7 hPa | 0 mm | - | - | - |
| 1777939401 | 26.67° C | 58% | 1002.8 hPa | 0 mm | - | - | - |
| 1777939098 | 26.67° C | 57% | 1002.9 hPa | 0 mm | - | - | - |
| 1777938794 | 27.22° C | 57% | 1002.9 hPa | 0 mm | - | - | - |
| 1777938491 | 27.22° C | 57% | 1003 hPa | 0 mm | - | - | - |
| 1777938189 | 26.67° C | 57% | 1003.1 hPa | 0 mm | - | - | - |
| 1777937885 | 26.67° C | 57% | 1002.9 hPa | 0 mm | - | - | - |
| 1777937581 | 26.67° C | 56% | 1003.1 hPa | 0 mm | - | - | - |
| 1777937278 | 26.67° C | 56% | 1003.6 hPa | 0 mm | - | - | - |
| 1777936975 | 26.67° C | 56% | 1003.4 hPa | 0 mm | - | - | - |
| 1777936672 | 26.67° C | 57% | 1003.4 hPa | 0 mm | - | - | - |
* Rain latest hour (hover to see other rain measurements)
** Current wind speed in m/s (hover to see current wind gust speed)